Hourly Weather Smolyane

Today, 9 May, Sunday

Time Temperature Precipitation Wind Pressure Humidity
00:00 +1°C° 0 mm 3 mps 749 mmHg 87%
01:00 +1°C° 0 mm 3 mps 749 mmHg 90%
02:00 +1°C° 0 mm 3 mps 749 mmHg 93%
03:00 +1°C° 0 mm 3 mps 750 mmHg 94%
04:00 0°C° 0 mm 3 mps 750 mmHg 95%
05:00 +1°C° 0 mm 2 mps 751 mmHg 95%
06:00 +2°C° 0 mm 3 mps 751 mmHg 86%
07:00 +4°C° 0 mm 3 mps 752 mmHg 77%
08:00 +8°C° 0 mm 3 mps 752 mmHg 68%
09:00 +9°C° 0 mm 3 mps 752 mmHg 62%
10:00 +10°C° 0 mm 3 mps 752 mmHg 55%
11:00 +11°C° 0 mm 3 mps 752 mmHg 49%
12:00 +12°C° 0 mm 3 mps 752 mmHg 45%
13:00 +13°C° 0 mm 3 mps 752 mmHg 42%
14:00 +13°C° 0 mm 3 mps 753 mmHg 39%
15:00 +15°C° 0 mm 2 mps 753 mmHg 39%
16:00 +15°C° 0 mm 2 mps 753 mmHg 39%
17:00 +15°C° 0 mm 1 mps 753 mmHg 39%
18:00 +13°C° 0 mm 1 mps 753 mmHg 46%
19:00 +11°C° 0 mm 1 mps 753 mmHg 54%
20:00 +9°C° 0 mm 1 mps 753 mmHg 61%
21:00 +8°C° 0 mm 1 mps 754 mmHg 64%
22:00 +8°C° 0 mm 1 mps 754 mmHg 67%
23:00 +7°C° 0 mm 1 mps 754 mmHg 70%

Tomorrow, 10 May, Monday

Time Temperature Precipitation Wind Pressure Humidity
00:00 +6°C° 0 mm 1 mps 754 mmHg 71%
01:00 +5°C° 0 mm 2 mps 755 mmHg 72%
02:00 +5°C° 0 mm 2 mps 755 mmHg 74%
03:00 +5°C° 0 mm 2 mps 755 mmHg 74%
04:00 +4°C° 0 mm 2 mps 755 mmHg 75%
05:00 +4°C° 0 mm 2 mps 755 mmHg 76%
06:00 +7°C° 0 mm 2 mps 755 mmHg 70%
07:00 +9°C° 0 mm 2 mps 755 mmHg 63%
08:00 +11°C° 0 mm 3 mps 756 mmHg 57%
09:00 +13°C° 0 mm 3 mps 755 mmHg 53%
10:00 +14°C° 0 mm 3 mps 755 mmHg 49%
11:00 +17°C° 0 mm 3 mps 755 mmHg 45%
12:00 +17°C° 0 mm 3 mps 755 mmHg 43%
13:00 +18°C° 0 mm 3 mps 755 mmHg 42%
14:00 +18°C° 0 mm 3 mps 755 mmHg 41%
15:00 +18°C° 0 mm 3 mps 754 mmHg 42%
16:00 +18°C° 0 mm 3 mps 754 mmHg 44%
17:00 +18°C° 0 mm 3 mps 754 mmHg 46%
18:00 +16°C° 0 mm 3 mps 754 mmHg 54%
19:00 +14°C° 0 mm 2 mps 754 mmHg 61%
20:00 +12°C° 0 mm 2 mps 754 mmHg 69%
21:00 +10°C° 0 mm 2 mps 754 mmHg 70%
22:00 +9°C° 0 mm 2 mps 754 mmHg 72%
23:00 +8°C° 0 mm 2 mps 755 mmHg 73%

Day after tomorrow, 11 May, Tuesday

Time Temperature Precipitation Wind Pressure Humidity
00:00 +7°C° 0 mm 2 mps 754 mmHg 73%
01:00 +7°C° 0 mm 2 mps 754 mmHg 74%
02:00 +6°C° 0 mm 2 mps 754 mmHg 75%
03:00 +6°C° 0 mm 2 mps 754 mmHg 75%
04:00 +6°C° 0 mm 2 mps 754 mmHg 76%
05:00 +6°C° 0 mm 2 mps 754 mmHg 76%
06:00 +8°C° 0 mm 2 mps 754 mmHg 69%
07:00 +10°C° 0 mm 3 mps 754 mmHg 62%
08:00 +12°C° 0 mm 3 mps 754 mmHg 55%
09:00 +13°C° 0 mm 4 mps 753 mmHg 49%
10:00 +15°C° 0 mm 4 mps 753 mmHg 43%
11:00 +17°C° 0 mm 4 mps 753 mmHg 37%
12:00 +18°C° 0 mm 4 mps 752 mmHg 39%
13:00 +19°C° 0 mm 4 mps 752 mmHg 41%
14:00 +19°C° 0 mm 3 mps 751 mmHg 43%
15:00 +19°C° 0 mm 3 mps 751 mmHg 47%
16:00 +19°C° 0 mm 3 mps 751 mmHg 51%
17:00 +19°C° 0 mm 3 mps 751 mmHg 54%
18:00 +18°C° 0 mm 3 mps 750 mmHg 64%
19:00 +16°C° 0 mm 3 mps 750 mmHg 74%
20:00 +13°C° 0 mm 3 mps 750 mmHg 83%
21:00 +13°C° 0 mm 3 mps 750 mmHg 87%
22:00 +12°C° 0 mm 3 mps 750 mmHg 90%
23:00 +12°C° 0 mm 4 mps 750 mmHg 94%

12 May, Wednesday

Time Temperature Precipitation Wind Pressure Humidity
00:00 +11°C° 0 mm 3 mps 750 mmHg 95%
01:00 +10°C° 0 mm 3 mps 749 mmHg 96%
02:00 +9°C° 0 mm 3 mps 749 mmHg 97%
03:00 +8°C° 0 mm 3 mps 749 mmHg 96%
04:00 +8°C° 0 mm 2 mps 749 mmHg 96%
05:00 +7°C° 0 mm 2 mps 749 mmHg 96%
06:00 +8°C° 0 mm 3 mps 749 mmHg 86%
07:00 +10°C° 0 mm 3 mps 748 mmHg 77%
08:00 +11°C° 0 mm 4 mps 748 mmHg 67%
09:00 +12°C° 0 mm 4 mps 748 mmHg 63%
10:00 +13°C° 0 mm 4 mps 747 mmHg 58%
11:00 +14°C° 0 mm 5 mps 747 mmHg 54%
12:00 +14°C° 0.1 mm 5 mps 746 mmHg 56%
13:00 +14°C° 0.1 mm 5 mps 746 mmHg 58%
14:00 +13°C° 0.1 mm 5 mps 746 mmHg 60%
15:00 +13°C° 0.1 mm 4 mps 746 mmHg 62%
16:00 +13°C° 0.1 mm 4 mps 745 mmHg 63%
17:00 +13°C° 0.1 mm 4 mps 745 mmHg 64%
18:00 +11°C° 0.1 mm 4 mps 745 mmHg 72%
19:00 +10°C° 0.1 mm 4 mps 745 mmHg 80%
20:00 +7°C° 0.1 mm 4 mps 745 mmHg 87%
21:00 +8°C° 0 mm 3 mps 745 mmHg 90%
22:00 +7°C° 0 mm 3 mps 744 mmHg 92%
23:00 +5°C° 0 mm 3 mps 744 mmHg 94%

13 May, Thursday

Time Temperature Precipitation Wind Pressure Humidity
00:00 +6°C° 0 mm 2 mps 744 mmHg 95%
01:00 +6°C° 0 mm 2 mps 744 mmHg 96%
02:00 +6°C° 0 mm 2 mps 744 mmHg 97%
03:00 +6°C° 0 mm 2 mps 743 mmHg 96%
04:00 +6°C° 0 mm 2 mps 743 mmHg 96%
05:00 +5°C° 0 mm 3 mps 743 mmHg 95%
06:00 +7°C° 0.1 mm 3 mps 743 mmHg 91%
07:00 +8°C° 0.1 mm 3 mps 743 mmHg 87%
08:00 +8°C° 0.1 mm 4 mps 743 mmHg 82%
09:00 +8°C° 0.7 mm 4 mps 743 mmHg 84%
10:00 +8°C° 0.7 mm 4 mps 742 mmHg 86%
11:00 +7°C° 0.7 mm 5 mps 742 mmHg 88%
12:00 +10°C° 0.1 mm 5 mps 742 mmHg 83%
13:00 +13°C° 0.1 mm 6 mps 741 mmHg 77%
14:00 +15°C° 0.1 mm 6 mps 741 mmHg 72%
15:00 +14°C° 0.2 mm 6 mps 741 mmHg 75%
16:00 +14°C° 0.2 mm 5 mps 741 mmHg 79%
17:00 +14°C° 0.2 mm 4 mps 741 mmHg 82%
18:00 +13°C° 0.2 mm 4 mps 740 mmHg 85%
19:00 +13°C° 0.2 mm 4 mps 740 mmHg 88%
20:00 +12°C° 0.2 mm 4 mps 740 mmHg 91%
21:00 +12°C° 0 mm 3 mps 740 mmHg 92%
22:00 +11°C° 0 mm 3 mps 740 mmHg 94%
23:00 +10°C° 0 mm 3 mps 740 mmHg 95%

14 May, Friday

Time Temperature Precipitation Wind Pressure Humidity
00:00 +10°C° 0 mm 3 mps 740 mmHg 96%
01:00 +9°C° 0 mm 3 mps 740 mmHg 96%
02:00 +9°C° 0 mm 2 mps 740 mmHg 97%
03:00 +9°C° 0 mm 2 mps 740 mmHg 97%
04:00 +10°C° 0 mm 2 mps 740 mmHg 97%
05:00 +10°C° 0 mm 2 mps 740 mmHg 96%
06:00 +11°C° 0 mm 3 mps 741 mmHg 92%
07:00 +13°C° 0 mm 3 mps 741 mmHg 87%
08:00 +14°C° 0 mm 3 mps 741 mmHg 83%
09:00 +14°C° 0.1 mm 3 mps 742 mmHg 80%
10:00 +16°C° 0.1 mm 3 mps 742 mmHg 77%
11:00 +16°C° 0.1 mm 3 mps 742 mmHg 74%
12:00 +16°C° 0.1 mm 3 mps 742 mmHg 75%
13:00 +16°C° 0.1 mm 2 mps 742 mmHg 75%
14:00 +16°C° 0.1 mm 2 mps 742 mmHg 76%
15:00 +18°C° 0.2 mm 1 mps 742 mmHg 74%
16:00 +18°C° 0.2 mm 1 mps 742 mmHg 73%
17:00 +19°C° 0.2 mm 1 mps 742 mmHg 71%
18:00 +16°C° 0.1 mm 1 mps 742 mmHg 78%
19:00 +15°C° 0.1 mm 1 mps 742 mmHg 85%
20:00 +13°C° 0.1 mm 1 mps 742 mmHg 92%
21:00 +13°C° 0 mm 1 mps 742 mmHg 92%
22:00 +13°C° 0 mm 1 mps 742 mmHg 93%
23:00 +12°C° 0 mm 1 mps 742 mmHg 94%
Show more

We Need Your Consent

Meteoprog and our Service Providers may store and access personal data such as cookies, device identifiers or other similar technologies on your device and process such data to personalise content and ads, as well as provide social media features and to analyse the traffic.

  • Store and/or access information on your device

    Cookies, device identifiers or other information can be stored or accessed on your device for the purposes indicated above.

  • Personalised ads and content, ad and content measurement, audience insights, and products development

    Ads and content can be personalised based on a profile. More data can be added to better personalise ads and content. Ad and content performance can be measured. Insights about the audience who saw the ads and content can be derived. Such data can be used to develop or improve user’s experience, systems and software.

By clicking ‘I Agree’ you will allow the use of indicated cookies, device identifiers, web beacons or other similar technologies. Your settings can be changed in the browser on your device.

For certain purposes, legitimate interests may be relied on, rather than consent. You can read more about this in our Privacy and Cookie Policy.